Skip Page Navigation
NASA JPL Caltech
NASA Logo - Jet Propulsion Laboratory + View the NASA Portal
+ Center for Near-Earth Object Studies
JPL Home Earth Solar System Stars & Galaxies Technology
JPL Solar System Dynamics
BODIES ORBITS EPHEMERIDES TOOLS PHYSICAL DATA DISCOVERY FAQ SITE MAP
IMPORTANT: The SSD Announcement email list is now available. Major changes are coming in the near future, including possible hostname and/or URL changes. To be notified of such changes, subscribe to this email list.

Please visit this page for more details.


JPL Small-Body Database Browser
Search: [ help ]  
392918 (2012 VL88)
Classification: Main-belt Asteroid          SPK-ID: 2392918
Ephemeris | Orbit Diagram | Orbital Elements | Mission Design | Physical Parameters | Discovery Circumstances | Close-Approach Data ]

[ show orbit diagram ]
Orbital Elements at Epoch 2458600.5 (2019-Apr-27.0) TDB
Reference: JPL 11 (heliocentric ecliptic J2000)
 Element Value Uncertainty (1-sigma)   Units 
e .1919563249239249 6.1432e-08  
a 3.056993541988266 4.6898e-08 au
q 2.470184296352027 1.9418e-07 au
i 5.003806975599963 6.9315e-06 deg
node 255.4207167875789 9.603e-05 deg
peri 171.7421433948307 9.9001e-05 deg
M 74.38490053949543 2.2344e-05 deg
tp 2458197.112445853598
(2018-Mar-19.61244585)
0.0001194 TDB
period 1952.271474983002
5.35
4.4925e-05
1.23e-07
d
yr
n .1844005839419102 4.2434e-09 deg/d
Q 3.643802787624506 5.59e-08 au
  Orbit Determination Parameters
   # obs. used (total)      150  
   data-arc span      4602 days (12.60 yr)  
   first obs. used      2006-08-21  
   last obs. used      2019-03-28  
   planetary ephem.      DE431  
   SB-pert. ephem.      SB431-N16  
   condition code      0  
   norm. resid. RMS      .5631  
   source      ORB  
   producer      Otto Matic  
   solution date      2019-Jul-13 15:28:24  

Additional Information
 Earth MOID = 1.48404 au 
 Jupiter MOID = 1.66984 au 
 T_jup = 3.201 
[ show covariance matrix ]

Ephemeris | Orbit Diagram | Orbital Elements | Mission Design | Physical Parameters | Discovery Circumstances | Close-Approach Data ]

Physical Parameter Table
Parameter Symbol Value Units Sigma Reference Notes
absolute magnitude H 16.5   n/a MPO434458  

392918 (2012 VL88)          Discovered 2007-Dec-15 by Mt. Lemmon Survey at Mount Lemmon
Reference: Last Updated: 2014-04-17

[ show close-approach data ]
Ephemeris | Orbit Diagram | Orbital Elements | Mission Design | Physical Parameters | Discovery Circumstances | Close-Approach Data ]
ABOUT SSD CREDITS/AWARDS PRIVACY/COPYRIGHT GLOSSARY LINKS
FirstGov
(server date/time)  
NASA Home Page
Site Manager:   Ryan S. Park
Webmaster  Alan B. Chamberlin